Change the Weather History Date:

Monday, December 2, 2013

  Actual Average Record
Temperature  
Mean Temperature 37 °F -  
Max Temperature 48 °F 50 °F 64 °F (1970)
Min Temperature 26 °F 30 °F 5 °F (1967)
Degree Days  
Heating Degree Days 28    
Moisture  
Dew Point 30 °F    
Average Humidity 82    
Maximum Humidity 100    
Minimum Humidity 50    
Precipitation  
Precipitation 0.00 in - - ()
Sea Level Pressure  
Sea Level Pressure 29.94 in    
Wind  
Wind Speed 0 mph (North)    
Max Wind Speed 5 mph    
Max Gust Speed -    
Visibility 9 miles    
Events      
Averages and records for this station are not official NWS values.
T = Trace of Precipitation, MM = Missing Value Source: NWS Daily Summary

Daily Weather History Graph

Daily Weather History Graph

Search for Another Location

Airport or City:

Trip Planner

Search our weather history database for the weather conditions in past years. The results will help you decide how hot, cold, wet, or windy it might be!

Date:

Astronomy

Dec. 02, 2013 Rise Set
Actual Time 7:02 AM EST 4:37 PM EST
Civil Twilight 6:32 AM EST 5:06 PM EST
Nautical Twilight 5:59 AM EST 5:40 PM EST
Astronomical Twilight 5:26 AM EST 6:12 PM EST
Moon 6:24 AM EST (12/2) 4:37 PM EST (12/2)
Length of Visible Light 10h 34m
Length of Day
9h 34m
Waning Crescent, 0% of the Moon is Illuminated
Dec 2
Waning Crescent
Dec 2
New
Dec 9
First Quarter
Dec 17
Full
Dec 25
Last Quarter

Hourly Weather History & Observations

Time (EST) Temp. Dew Point Humidity Pressure Visibility Wind Dir Wind Speed Gust Speed Precip Events Conditions
12:54 AM 28.9 °F 27.0 °F 92% 30.02 in 7.0 mi Calm Calm - N/A   Clear
1:54 AM 27.0 °F 25.0 °F 92% 30.02 in 7.0 mi Calm Calm - N/A   Clear
2:54 AM 26.1 °F 25.0 °F 96% 30.01 in 7.0 mi Calm Calm - N/A   Clear
3:54 AM 26.1 °F 26.1 °F 100% 29.99 in 6.0 mi Calm Calm - N/A   Clear
4:54 AM 28.9 °F 28.0 °F 96% 29.99 in 7.0 mi Calm Calm - N/A   Overcast
5:54 AM 32.0 °F 30.9 °F 96% 29.98 in 7.0 mi Calm Calm - N/A   Overcast
6:54 AM 33.1 °F 32.0 °F 96% 29.99 in 9.0 mi Calm Calm - N/A   Overcast
7:54 AM 35.1 °F 33.1 °F 92% 29.98 in 8.0 mi Calm Calm - N/A   Overcast
8:54 AM 37.9 °F 33.1 °F 83% 29.98 in 9.0 mi Calm Calm - N/A   Overcast
9:54 AM 41.0 °F 34.0 °F 76% 29.97 in 9.0 mi Calm Calm - N/A   Overcast
10:54 AM 44.1 °F 33.1 °F 65% 29.96 in 10.0 mi Calm Calm - N/A   Overcast
11:54 AM 46.9 °F 32.0 °F 56% 29.94 in 10.0 mi NNE 4.6 mph - N/A   Overcast
12:54 PM 48.0 °F 33.1 °F 56% 29.91 in 10.0 mi North 4.6 mph - N/A   Overcast
1:54 PM 48.0 °F 33.1 °F 56% 29.91 in 10.0 mi Calm Calm - N/A   Overcast
2:54 PM 48.9 °F 30.9 °F 50% 29.90 in 10.0 mi Calm Calm - N/A   Overcast
3:54 PM 46.9 °F 34.0 °F 61% 29.90 in 10.0 mi North 4.6 mph - N/A   Overcast
4:54 PM 41.0 °F 34.0 °F 76% 29.90 in 10.0 mi Calm Calm - N/A   Overcast
5:54 PM 37.0 °F 32.0 °F 82% 29.89 in 10.0 mi Calm Calm - N/A   Clear
6:54 PM 33.1 °F 30.9 °F 92% 29.90 in 10.0 mi Calm Calm - N/A   Clear
7:54 PM 30.9 °F 28.9 °F 92% 29.90 in 10.0 mi Calm Calm - N/A   Clear
8:54 PM 30.9 °F 28.0 °F 89% 29.89 in 10.0 mi Calm Calm - N/A   Clear
9:54 PM 28.0 °F 27.0 °F 96% 29.90 in 9.0 mi Calm Calm - N/A   Clear
10:54 PM 28.0 °F 26.1 °F 92% 29.90 in 10.0 mi Calm Calm - N/A   Partly Cloudy
11:54 PM 28.0 °F 27.0 °F 96% 29.88 in 7.0 mi Calm Calm - N/A   Scattered Clouds